ZHUHAI-1 02 (CAS-4B) (42759 NORAD) Tracking and Keplerian Element Data

This shows tracking and keplerian element data for the satellite.

Feedback or suggestion? Click here.




ElementValue
Catalog42759
NameZHUHAI-1 02 (CAS-4B)
Epoch Orbit29174
Epoch Day270.10783074
Epoch Year2022
RAAN132.1235
Inclination43.0173
Eccentricity0.0010016
Argument of Perigee217.879
Mean Anonmoly279.6039
Mean Motion15.12549728
Decay Rate3.674E-05
L11 42759U 17034B 22270.10783074 .00003674 00000+0 21951-3 0 9995
L22 42759 43.0173 132.1235 0010016 217.8790 279.6039 15.12549728291749

Live tracking and technical data element details for ZHUHAI-1 02 (CAS-4B) (NORAD 42759). ZHUHAI-1 02 (CAS-4B) can be tracked NOW for your location showing map with azimuth and elevation plus other details from your city location.

Track the satellite on the map from your city or location and see movement details for azimuth, elevation, latitude, longitude, range, height, and movement on the map or in text.







IsCatalogInMostPopularTable: catalog: 42759, numindb: 838
Update: records affected: 1



GetName: 42759 ZHUHAI-1 02 (CAS-4B)

Hit Count: updated at: Fri, 30 Sep 2022 02:11:22 GMT